Dax, France

7:05 AM CEST on June 26, 2017 (GMT +0200)
Seyresse Army

Weather History for LFBY - February, 2013

Change the Weather History Date:

Sunday, February 17, 2013

  Actual Average (LFBZ) Record (LFBZ)
Temperature  
Mean Temperature 46 °F -  
Max Temperature 59 °F 55 °F 64 °F (2007)
Min Temperature 33 °F 42 °F 26 °F (2003)
Degree Days  
Heating Degree Days 19    
Moisture  
Dew Point 38 °F    
Average Humidity 75    
Maximum Humidity 100    
Minimum Humidity 48    
Precipitation  
Precipitation 0.00 in - - ()
Sea Level Pressure  
Sea Level Pressure 29.91 in    
Wind  
Wind Speed 4 mph ()    
Max Wind Speed 7 mph    
Max Gust Speed -    
Visibility 6.2 miles    
Events      
Averages and records for this station are not official NWS values.
T = Trace of Precipitation, MM = Missing Value Source: Averaged Metar Reports

Daily Weather History Graph

Daily Weather History Graph

Search for Another Location

Airport or City:

Trip Planner

Search our weather history database for the weather conditions in past years. The results will help you decide how hot, cold, wet, or windy it might be!

Date:

Astronomy

Feb. 17, 2013 Rise Set
Actual Time 7:59 AM CET 6:37 PM CET
Civil Twilight 7:30 AM CET 7:06 PM CET
Nautical Twilight 6:57 AM CET 7:40 PM CET
Astronomical Twilight 6:23 AM CET 8:13 PM CET
Moon 11:27 AM CET (2/17) 1:33 AM CET (2/17)
Length of Visible Light 11h 36m
Length of Day
10h 37m
Waxing Crescent, 46% of the Moon is Illuminated
Feb 17
Waxing Crescent
Feb 17
First Quarter
Feb 25
Full
Mar 4
Last Quarter
Mar 11
New

Hourly Weather History & Observations

Time (CET) Temp. Windchill Dew Point Humidity Pressure Visibility Wind Dir Wind Speed Gust Speed Precip Events Conditions
12:00 AM 41.0 °F 38.0 °F 33.8 °F 76% 30.04 in 6.2 mi ENE 4.6 mph - N/A   Unknown
1:00 AM 41.0 °F 38.0 °F 37.4 °F 87% 30.01 in 6.2 mi NE 4.6 mph - N/A   Unknown
2:00 AM 39.2 °F - 35.6 °F 87% 30.01 in 6.2 mi Variable 2.3 mph - N/A   Unknown
3:00 AM 37.4 °F 34.9 °F 35.6 °F 93% 30.01 in 6.2 mi East 3.5 mph - N/A   Unknown
4:00 AM 35.6 °F 31.7 °F 35.6 °F 100% 29.98 in 6.2 mi East 4.6 mph - N/A   Unknown
5:00 AM 35.6 °F 32.8 °F 33.8 °F 93% 29.95 in 6.2 mi East 3.5 mph - N/A   Unknown
6:00 AM 35.6 °F 32.8 °F 33.8 °F 93% 29.95 in 6.2 mi East 3.5 mph - N/A   Unknown
7:00 AM 33.8 °F - 33.8 °F 100% 29.95 in 6.2 mi Variable 2.3 mph - N/A   Unknown
8:00 AM 33.8 °F 30.8 °F 33.8 °F 100% 29.92 in 6.2 mi East 3.5 mph - N/A   Unknown
9:00 AM 37.4 °F 33.8 °F 33.8 °F 87% 29.95 in 6.2 mi ENE 4.6 mph - N/A   Unknown
10:00 AM 41.0 °F 38.0 °F 35.6 °F 81% 29.92 in 6.2 mi ENE 4.6 mph - N/A   Unknown
11:00 AM 44.6 °F 42.2 °F 37.4 °F 76% 29.92 in 6.2 mi NE 4.6 mph - N/A   Unknown
12:00 PM 48.2 °F - 39.2 °F 71% 29.92 in 6.2 mi NE 4.6 mph - N/A   Unknown
1:00 PM 53.6 °F - 41.0 °F 62% 29.89 in 6.2 mi NE 4.6 mph - N/A   Unknown
2:00 PM 55.4 °F - 41.0 °F 58% 29.86 in 6.2 mi NE 5.8 mph - N/A   Unknown
3:00 PM 59.0 °F - 41.0 °F 51% 29.86 in 6.2 mi NE 6.9 mph - N/A   Unknown
4:00 PM 59.0 °F - 39.2 °F 48% 29.83 in 6.2 mi NE 6.9 mph - N/A   Unknown
5:00 PM 57.2 °F - 39.2 °F 51% 29.83 in 6.2 mi ENE 5.8 mph - N/A   Unknown
6:00 PM 57.2 °F - 41.0 °F 55% 29.83 in 6.2 mi ENE 4.6 mph - N/A   Unknown
7:00 PM 55.4 °F - 41.0 °F 58% 29.83 in 6.2 mi NE 4.6 mph - N/A   Unknown
8:00 PM 51.8 °F - 41.0 °F 67% 29.83 in 6.2 mi ENE 3.5 mph - N/A   Unknown
9:00 PM 51.8 °F - 41.0 °F 67% 29.83 in 6.2 mi ENE 3.5 mph - N/A   Unknown
10:00 PM 50.0 °F - 41.0 °F 71% 29.83 in 6.2 mi ENE 4.6 mph - N/A   Unknown
11:00 PM 48.2 °F - 41.0 °F 76% 29.83 in 6.2 mi Variable 3.5 mph - N/A   Unknown